CW1490 Weather Reports


Display with metric or nautical units.
time (UTC)temp
F
wind
direction
speed
MPH
gust
MPH
rain 1hr
in
rain 24hr
in
rain mn
in
humidity
%
barometer
mb
20140918053848 44 235 0.0 2.0 0.00 0.01 0.00 96 1014.5
20140918052347 44 235 0.0 0.0 0.00 0.01 0.00 96 1014.5
20140918050844 44 235 0.0 0.0 0.00 0.01 0.00 95 1014.6
20140918045344 44 235 0.0 0.0 0.00 0.01 0.00 95 1014.6
20140918043844 44 235 0.0 0.0 0.00 0.01 0.00 95 1014.5
20140918042342 44 235 0.0 0.0 0.00 0.01 0.00 94 1014.6
20140918040840 44 235 1.0 3.0 0.00 0.01 0.00 94 1014.7
20140918035338 44 264 0.0 0.0 0.00 0.01 0.01 94 1014.7
20140918033838 44 264 0.0 0.0 0.00 0.01 0.01 94 1014.7
20140918032338 45 265 0.0 0.0 0.00 0.01 0.01 94 1014.8
20140918031037 45 265 0.0 0.0 0.00 0.01 0.01 94 1014.8
20140918025337 45 265 0.0 0.0 0.00 0.01 0.01 93 1014.7
20140918023836 46 265 0.0 0.0 0.00 0.01 0.01 93 1014.7
20140918022336 46 265 0.0 0.0 0.00 0.01 0.01 93 1014.7
20140918020835 46 265 0.0 0.0 0.00 0.01 0.01 92 1014.7
20140918015334 47 265 0.0 0.0 0.00 0.01 0.01 92 1014.8
20140918013834 47 265 0.0 0.0 0.00 0.01 0.01 92 1014.8
20140918012333 48 265 0.0 0.0 0.00 0.01 0.01 91 1014.8
20140918010832 49 265 0.0 0.0 0.00 0.01 0.01 91 1014.8
20140918005332 49 265 0.0 2.0 0.00 0.01 0.01 90 1014.9
20140918003832 50 265 0.0 0.0 0.00 0.01 0.01 89 1014.9
20140918002331 51 265 0.0 0.0 0.00 0.01 0.01 88 1014.8
20140918000830 51 265 0.0 0.0 0.00 0.01 0.01 87 1014.7
20140917235329 52 265 0.0 1.0 0.00 0.01 0.01 86 1014.6
20140917233829 54 265 0.0 2.0 0.00 0.01 0.01 85 1014.5
20140917232329 55 265 0.0 1.0 0.00 0.01 0.01 83 1014.4
20140917230828 56 265 0.0 1.0 0.00 0.01 0.01 82 1014.2
20140917225327 58 265 1.0 4.0 0.00 0.01 0.01 80 1014.1
20140917223829 59 312 0.0 0.0 0.00 0.01 0.01 75 1014.1
20140917222327 62 312 0.0 0.0 0.00 0.01 0.01 68 1014.1
20140917220826 64 312 0.0 1.0 0.00 0.01 0.01 64 1014.0
20140917215326 65 313 0.0 2.0 0.00 0.01 0.01 54 1013.9
20140917213826 66 257 1.0 8.0 0.00 0.01 0.01 50 1013.6
20140917212324 68 278 1.0 4.0 0.00 0.01 0.01 50 1013.6
20140917210824 69 132 0.0 5.0 0.00 0.01 0.01 47 1013.5
20140917205324 69 12 1.0 6.0 0.00 0.01 0.01 50 1013.5
20140917203822 68 330 0.0 6.0 0.00 0.01 0.01 51 1013.4
20140917202321 68 26 0.0 2.0 0.00 0.01 0.01 56 1013.5
20140917200820 68 26 1.0 3.0 0.00 0.01 0.01 49 1013.6
20140917195519 68 338 0.0 3.0 0.00 0.01 0.01 50 1013.6
20140917193817 69 290 1.0 4.0 0.00 0.01 0.01 47 1013.6
20140917192320 69 257 0.0 3.0 0.00 0.01 0.01 46 1013.6
20140917190815 68 296 1.0 8.0 0.00 0.01 0.01 49 1013.8
20140917185313 67 225 2.0 4.0 0.00 0.01 0.01 50 1013.7
20140917182311 69 238 4.0 10.0 0.00 0.01 0.01 49 1014.1
20140917180812 68 210 5.0 12.0 0.00 0.01 0.01 51 1014.2
20140917175307 66 208 2.0 8.0 0.00 0.01 0.01 54 1014.4
20140917173803 65 84 0.0 1.0 0.00 0.01 0.01 61 1014.6
20140917172302 65 151 1.0 5.0 0.00 0.01 0.01 60 1014.7
20140917170800 64 113 0.0 2.0 0.00 0.01 0.01 60 1014.8
20140917165257 65 166 0.0 5.0 0.00 0.01 0.01 55 1015.1
20140917163756 66 123 1.0 6.0 0.00 0.01 0.01 62 1015.2
20140917162255 65 86 1.0 9.0 0.00 0.01 0.01 63 1015.3
20140917160749 65 72 1.0 4.0 0.00 0.01 0.01 61 1015.4
20140917155247 64 126 4.0 9.0 0.00 0.01 0.01 66 1015.5
20140917153742 63 234 0.0 5.0 0.00 0.01 0.01 74 1015.7
20140917152238 61 136 0.0 3.0 0.00 0.01 0.01 72 1015.9
20140917150733 60 151 0.0 4.0 0.00 0.01 0.01 81 1016.2
20140917145229 57 199 0.0 4.0 0.00 0.01 0.01 93 1016.2
20140917143724 55 209 2.0 5.0 0.00 0.01 0.01 97 1016.3
20140917142219 53 187 0.0 1.0 0.00 0.01 0.01 98 1016.5
20140917140715 52 188 0.0 2.0 0.00 0.01 0.01 98 1016.7
20140917135212 50 182 1.0 3.0 0.00 0.03 0.01 98 1016.9
20140917133711 48 218 0.0 2.0 0.00 0.03 0.01 97 1016.9
20140917132210 48 232 1.0 3.0 0.00 0.03 0.01 97 1017.2
20140917130707 47 108 0.0 2.0 0.00 0.03 0.01 97 1017.2
20140917125205 46 55 0.0 3.0 0.00 0.06 0.01 97 1017.0
20140917123801 46 45 2.0 4.0 0.00 0.06 0.01 97 1017.0
20140917122200 45 279 0.0 2.0 0.00 0.06 0.01 97 1016.9
20140917120658 45 279 0.0 0.0 0.00 0.06 0.01 97 1017.0
20140917115155 45 270 0.0 0.0 0.00 0.10 0.01 97 1017.0
20140917113653 45 270 0.0 3.0 0.00 0.10 0.01 97 1016.9
20140917112151 44 280 1.0 2.0 0.00 0.10 0.01 97 1016.9
20140917110649 44 280 0.0 0.0 0.00 0.10 0.01 97 1016.7
20140917105146 44 280 1.0 3.0 0.00 0.10 0.01 97 1016.5
20140917103643 44 222 0.0 0.0 0.00 0.10 0.01 97 1016.5
20140917102141 44 222 0.0 1.0 0.00 0.10 0.01 97 1016.2
20140917100641 45 222 0.0 3.0 0.00 0.10 0.01 97 1016.2
20140917095139 45 222 1.0 4.0 0.00 0.10 0.01 97 1016.1
20140917093637 45 232 0.0 0.0 0.00 0.10 0.01 97 1016.1
20140917092137 45 232 0.0 0.0 0.00 0.10 0.01 97 1016.1
20140917090637 45 232 0.0 0.0 0.00 0.10 0.01 97 1015.8
20140917085136 45 231 0.0 0.0 0.00 0.11 0.01 97 1016.0
20140917083636 45 231 0.0 0.0 0.01 0.11 0.01 97 1016.0
20140917082134 45 231 0.0 0.0 0.01 0.11 0.01 96 1015.9
20140917080633 45 231 0.0 2.0 0.01 0.11 0.01 96 1015.8
20140917075130 46 231 0.0 0.0 0.01 0.11 0.01 96 1016.1
20140917073629 46 231 0.0 3.0 0.00 0.10 0.00 96 1015.9
20140917072126 47 219 1.0 3.0 0.00 0.10 0.00 96 1015.9
20140917070624 47 217 0.0 0.0 0.00 0.10 0.00 96 1015.9
20140917065123 47 219 0.0 3.0 0.00 0.11 0.00 96 1016.1
20140917063623 47 219 0.0 0.0 0.00 0.11 0.00 96 1015.9
20140917062123 47 219 0.0 0.0 0.00 0.11 0.00 96 1015.8
20140917060622 47 219 0.0 2.0 0.00 0.11 0.00 96 1015.8
20140917055121 47 219 0.0 0.0 0.00 0.14 0.00 96 1015.8